Location: Altavilla Irpina
(41.0000°N, 14.7833°E)
Time: 05:35:57
(UTC+00:00)

SL-08 R/B - Pass Details

Date: 19 May 2025
Orbit: 668 x 730 km, 98.5° (Epoch: 14 June)

Event Time Altitude Azimuth Distance (km) Brightness Sun altitude
Rises 18:52:28 0° 11° (N) 3,154 7.0 -6.8°
Reaches altitude 10° 18:54:46 10° 9° (N) 2,223 6.3 -7.1°
Maximum altitude 18:59:37 73° 286° (WNW) 753 3.7 -7.9°
Drops below altitude 10° 19:04:23 10° 202° (SSW) 2,174 5.7 -8.6°
Sets 19:06:37 0° 200° (SSW) 3,079 6.5 -8.9°
